Location: El Abasto
(10.3790°N, 67.5897°W)
Time: 18:07:49
(UTC+00:00)

OAO 1 - Pass Details

Date: 19 May 2024
Orbit: 772 x 783 km, 35.0° (Epoch: 11 June)

Event Time Altitude Azimuth Distance (km) Brightness Sun altitude
Rises 23:38:53 0° 232° (SW) 3,246 8.1 -12.9°
Reaches altitude 10° 23:41:21 10° 231° (SW) 2,317 7.3 -13.5°
Maximum altitude 23:46:50 81° 144° (SE) 784 4.4 -14.7°
Drops below altitude 10° 23:52:18 10° 57° (ENE) 2,309 6.7 -15.9°
Enters shadow 23:53:27 - 56° (ENE) 2,740 7.1 -16.2°
